Regional Weather Roundup
Issued by NWS Goodland, KS

Home | Current Version | Previous Version | Graphics & Text | Print | Product List | Glossary On
Versions: 1 2 3 4 5 6 7 8 9 10 11 12 13 14 15 16 17 18 19 20 21 22 23 24 25 26 27 28 29 30 31 32 33 34 35 36 37 38 39 40 41 42 43 44 45 46 47 48 49 50
000
ASUS43 KGLD 232359
RWRGLD

GOODLAND FORECAST AREA HOURLY WEATHER ROUNDUP
NATIONAL WEATHER SERVICE GOODLAND KS
600 PM MDT TUE SEP 23 2014

...OFFICIAL OBSERVATIONS...

CITY           SKY/WX    TMP DP  RH WIND       PRES   REMARKS
GOODLAND KS    CLOUDY    75  57  53 SW6       30.03F
HILL CITY KS   PTCLDY    79  60  52 S13G23    29.97R
IMPERIAL NEB   PTCLDY    82  44  26 W9        29.96S
MCCOOK NEB     PTCLDY    78  58  49 SE5       29.94S
AKRON CO       PTCLDY    75  48  38 N5        30.08R
BURLINGTON CO  MOCLDY    71  53  52 E3        30.06F
LIMON CO       MOCLDY    73  46  38 N7        30.14R
$$

...UNOFFICIAL OBSERVATIONS...

CITY           SKY/WX    TMP DP  RH WIND       PRES   REMARKS
COLBY KS       HAZE      79  61  53 S3        30.00F VSB 1
GOVE KS          N/A     83  32  16 MISG        N/A
NORTON KS      CLEAR     75  59  57 E6        29.94S
SHARON SPRINGS   N/A     80  53  39 NE8         N/A
WAKEENEY KS      N/A     77  55  46 MISG        N/A
KIT CARSON CO    N/A     74  52  45 CALM        N/A
YUMA CO          N/A     79  45  29 NW10        N/A
$$


USA.gov is the U.S. government's official web portal to all federal, state and local government web resources and services.